Weather Service Report


586 
ASCA44 KEWX 282120
RWRMX 

LATIN AMERICA AND CARIBBEAN REGIONAL WEATHER ROUNDUP
NATIONAL WEATHER SERVICE AUSTIN/SAN ANTONIO TX
400 PM CDT FRI APR 28 2017

NOTE: "FAIR" INDICATED FEW OR NO CLOUDS BELOW 12,000 FEET WITH NO
SIGNIFICANT WEATHER AND/OR OBSTRUCTIONS TO VISIBILITY.

BAJA CALIFORNIA
  
CITY           SKY/WX    TMP DP  RH WIND       PRES   REMARKS
LORETO         SUNNY     82  57  42 S7        29.70F                  
LA PAZ         SUNNY     77  52  41 SW13      29.84                   
MEXICALI       SUNNY     84  19   9 NW18      29.69                   
S.J. DEL CABO  SUNNY     81  57  44 SE8       29.79F                  
TIJUANA        PTSUNNY   72  50  46 W12       29.81F                  

NORTHWESTERN MEXICO
  
CITY           SKY/WX    TMP DP  RH WIND       PRES   REMARKS
CULIACAN       SUNNY     82  64  54 S12       29.78                   
DURANGO        SUNNY     84  10   6 W6        29.93                   
GUAYMAS        SUNNY     79  68  69 S29       29.71                   
HERMOSILLO     MOSUNNY   90  57  33 S18       29.72F                  
CD. JUAREZ     PTSUNNY   86  50  28 W12       29.56                   
LOS MOCHIS     MOSUNNY   79  57  47 S18       29.80F BLWGDUST         
OBREGON        MOSUNNY   82  63  51 S14       29.72                   

NORTHEASTERN MEXICO
  
CITY           SKY/WX    TMP DP  RH WIND       PRES   REMARKS
CHIHUAHUA      PTSUNNY   88  32  13 W21       29.73                   
MATAMOROS      MOSUNNY   93  70  46 S16G30    29.54  HX  99           
MONCLOVA       MOSUNNY  104  61  24 SW17      29.52  HX 105           
MONTERREY      SUNNY    106  41  11 E6        29.49F HX 100           
NUEVO LAREDO   SUNNY     97  64  34 SE5       29.49  HX  99           
PIEDRAS NEGRAS SUNNY     90  73  58 E12       29.56F HX  98           
REYNOSA        MOSUNNY   95  61  31 SE17G29   29.50  HX  95           
SALTILLO       SUNNY     91  57  31 N9        29.80F HX  90           
TORREON        SUNNY     97  34  11 NE3       29.72F HX  91           
CD. VICTORIA   PTSUNNY   99  57  25 SE12      29.50  HX  97           

WESTERN MEXICO
  
CITY           SKY/WX    TMP DP  RH WIND       PRES   REMARKS
AGUASCALIENTES PTSUNNY   81 -13   2 S8        30.05                   
COLIMA         CLOUDY    77  63  61 CALM      29.93F                  
DEL BAJIO      CLOUDY    84   9   6 SW10      30.11F                  
GUADALAJARA    PTSUNNY   84   1   4 W9        30.00                   
MANZANILLO     PTSUNNY   81  70  69 W23       29.76F                  
MAZATLAN       SUNNY     81  64  57 W9        29.82F                  
P. VALLARTA    SUNNY     81  68  65 SW16      29.82F                  
URUAPAN        PTSUNNY   79  54  41 SE12      30.04F                  
ZACATECAS      SUNNY     82  23  11 W14G25    30.04F                  

CENTRAL MEXICO
  
CITY           SKY/WX    TMP DP  RH WIND       PRES   REMARKS
CUERNAVACA     CLOUDY    91  45  19 SW7       29.91F HAZE             
MEXICO CITY    PTSUNNY   84  23  10 W8G20     30.13F                  
MORELIA        CLOUDY    81  30  16 NW2       30.06                   
POZA RICA      PTSUNNY   91  70  49 CALM      29.68F HX  97           
PUEBLA         PTSUNNY   77  36  22 S22       30.15F                  
QUERETARO      PTSUNNY   73  18  12 W17       30.14F                  
S. LUIS POTOSI CLOUDY    84  -6   3 W18G30    29.98F                  
TAMPICO        PTSUNNY   84  75  74 SE16      29.56F HAZE    HX  92   
TOLUCA         CLOUDY    75  28  17 W14       30.25F                  

SOUTHERN MEXICO
  
CITY           SKY/WX    TMP DP  RH WIND       PRES   REMARKS
ACAPULCO       PTSUNNY   84  73  70 W9        29.75F HX  91           
B. DE HUATULCO   N/A    N/A N/A N/A MISG        N/A                   
OAXACA         PTSUNNY   90  39  17 S8        29.95F                  
P. ESCONDIDO   MOSUNNY   82  73  74 W14       29.86F                  
VERACRUZ       PTSUNNY   95  72  46 E7        29.60F HX 103           
ZIHUATANEJO    CLOUDY    84  72  65 W14       29.79F                  

YUCATAN PENINSULA
  
CITY           SKY/WX    TMP DP  RH WIND       PRES   REMARKS
CAMPECHE       MOSUNNY  102  73  39 E12G23    29.64F HX 114           
CANCUN         PTSUNNY   84  79  84 E16       29.85F HX  96           
CHETUMAL       CLOUDY    88  77  70 SE21      29.77  HX 100           
CD. DEL CARMEN CLOUDY    93  75  55 N10       29.63  HX 104           
COZUMEL        PTSUNNY   86  77  74 SE14      29.82F HX  97           
MERIDA         PTSUNNY  100  68  34 SE20G31   29.71F HX 106           
MINATITLAN     MOSUNNY   99  68  36 S17       29.59  HX 104           
TAPACHULA      MOSUNNY   91  72  52 W13       29.76F HX  98           
TUX. GUTIERREZ MOSUNNY   99  57  25 S14       29.72F HX  97           
VILLAHERMOSA   SUNNY     99  77  49 N9        29.65F HAZE    HX 114   

CENTRAL AMERICA
  
CITY           SKY/WX    TMP DP  RH WIND       PRES   REMARKS
BELIZE CITY    MOSUNNY   90  81  74 E12       29.73F HX 108           
MANAGUA        PTCLDY    99  72  41 E12       29.68F HX 107           

CARIBBEAN
  
CITY           SKY/WX    TMP DP  RH WIND       PRES   REMARKS
ARUBA          MOSUNNY   86  77  74 E25       29.77F HX  97           
CURACAO        MOSUNNY   86  75  70 E15       29.83F HX  95           
KINGSTON       MOSUNNY   86  73  66 SE23      29.89S HX  93           
NASSAU         PTSUNNY   86  75  70 E14       30.08S HX  95           
SAN JUAN       PTSUNNY   81  75  83 E14       30.03R                  
SANTO DOMINGO  LGT RAIN  79  75  89 NE9       29.97S                  
ST. CROIX      HVY RAIN  77  73  88 E15G32    30.02  FOG              
ST. KITTS      PTSUNNY   81  75  83 NE7       30.00S                  
ST. MAARTEN    PTSUNNY   82  73  74 E15       30.00S                  
ST. THOMAS     MOSUNNY   81  73  78 E13       30.01S                  

$$

  

Return to Home page


Western Regional Climate Center, wrcc@dri.edu